Time,TemperatureF,DewpointF,PressureIn,WindDirection,WindDirectionDegrees,WindSpeedMPH,WindSpeedGustMPH,Humidity,HourlyPrecipIn,Conditions,Clouds,dailyrainin,SolarRadiationWatts/m^2,SoftwareType,DateUTC
2013-07-11 00:02:00,58.0,52.0,-100.00,WNW,285,2.0,13.0,81,0.00,,,0.03,0.000000,,2013-07-11 04:02:00,
2013-07-11 00:12:00,58.0,52.0,-100.00,WNW,285,2.0,13.0,81,0.00,,,0.03,0.000000,,2013-07-11 04:12:00,
2013-07-11 00:43:00,57.0,51.0,-100.00,NW,307,3.0,9.0,81,0.00,,,0.03,0.000000,,2013-07-11 04:43:00,
2013-07-11 00:53:00,57.0,51.0,-100.00,NW,307,3.0,9.0,81,0.00,,,0.03,0.000000,,2013-07-11 04:53:00,
2013-07-11 01:02:00,57.0,51.0,-100.00,NW,307,3.0,9.0,81,0.00,,,0.03,0.000000,,2013-07-11 05:02:00,
2013-07-11 01:12:00,57.0,51.0,-100.00,NW,307,3.0,9.0,81,0.00,,,0.03,0.000000,,2013-07-11 05:12:00,
2013-07-11 01:43:00,53.0,50.0,-100.00,NW,319,4.0,8.0,88,0.00,,,0.01,0.000000,,2013-07-11 05:43:00,
2013-07-11 01:52:00,53.0,50.0,-100.00,NW,319,4.0,8.0,88,0.00,,,0.01,0.000000,,2013-07-11 05:52:00,
2013-07-11 02:01:00,53.0,50.0,-100.00,NW,319,4.0,8.0,88,0.00,,,0.01,0.000000,,2013-07-11 06:01:00,
2013-07-11 02:12:00,53.0,50.0,-100.00,NW,319,4.0,8.0,88,0.00,,,0.01,0.000000,,2013-07-11 06:12:00,
2013-07-11 02:43:00,52.0,49.0,-100.00,NNE,19,3.0,7.0,91,0.00,,,0.01,0.000000,,2013-07-11 06:43:00,
2013-07-11 02:53:00,52.0,49.0,-100.00,NNE,19,3.0,7.0,91,0.00,,,0.01,0.000000,,2013-07-11 06:53:00,
2013-07-11 03:02:00,52.0,49.0,-100.00,NNE,19,3.0,7.0,91,0.00,,,0.01,0.000000,,2013-07-11 07:02:00,
2013-07-11 03:12:00,52.0,49.0,-100.00,NNE,19,3.0,7.0,91,0.00,,,0.01,0.000000,,2013-07-11 07:12:00,
2013-07-11 03:45:00,51.0,49.0,-100.00,West,277,2.0,6.0,94,0.00,,,0.01,0.000000,,2013-07-11 07:45:00,
2013-07-11 03:53:00,51.0,49.0,-100.00,West,277,2.0,6.0,94,0.00,,,0.01,0.000000,,2013-07-11 07:53:00,
2013-07-11 04:02:00,51.0,49.0,-100.00,West,277,2.0,6.0,94,0.00,,,0.01,0.000000,,2013-07-11 08:02:00,
2013-07-11 04:12:00,51.0,49.0,-100.00,West,277,2.0,6.0,94,0.00,,,0.01,0.000000,,2013-07-11 08:12:00,
2013-07-11 04:43:00,51.0,50.0,-100.00,WNW,284,5.0,8.0,96,0.00,,,0.01,0.000000,,2013-07-11 08:43:00,
2013-07-11 04:53:00,51.0,50.0,-100.00,WNW,284,5.0,8.0,96,0.00,,,0.01,0.000000,,2013-07-11 08:53:00,
2013-07-11 05:03:00,51.0,50.0,-100.00,WNW,284,5.0,8.0,96,0.00,,,0.01,0.000000,,2013-07-11 09:03:00,
2013-07-11 05:12:00,51.0,50.0,-100.00,WNW,284,5.0,8.0,96,0.00,,,0.01,0.000000,,2013-07-11 09:12:00,
2013-07-11 05:43:00,51.0,50.0,-100.00,WNW,291,5.0,7.0,96,0.00,,,0.01,0.000000,,2013-07-11 09:43:00,
2013-07-11 05:53:00,51.0,50.0,-100.00,WNW,291,5.0,7.0,96,0.00,,,0.01,0.000000,,2013-07-11 09:53:00,
2013-07-11 06:01:00,51.0,50.0,-100.00,WNW,291,5.0,7.0,96,0.00,,,0.01,0.000000,,2013-07-11 10:01:00,
2013-07-11 06:12:00,51.0,50.0,-100.00,WNW,291,5.0,7.0,96,0.00,,,0.01,0.000000,,2013-07-11 10:12:00,
2013-07-11 06:43:00,52.0,50.0,-100.00,WNW,299,3.0,8.0,94,0.00,,,0.00,2.000000,,2013-07-11 10:43:00,
2013-07-11 06:52:00,52.0,50.0,-100.00,WNW,299,3.0,8.0,94,0.00,,,0.00,2.000000,,2013-07-11 10:52:00,
2013-07-11 07:02:00,52.0,50.0,-100.00,WNW,299,3.0,8.0,94,0.00,,,0.00,2.000000,,2013-07-11 11:02:00,
2013-07-11 07:12:00,52.0,50.0,-100.00,WNW,299,3.0,8.0,94,0.00,,,0.00,2.000000,,2013-07-11 11:12:00,
2013-07-11 07:43:00,53.0,51.0,-100.00,NW,324,4.0,6.0,94,0.00,,,-99.99,69.000000,,2013-07-11 11:43:00,
2013-07-11 07:53:00,53.0,51.0,-100.00,NW,324,4.0,6.0,94,0.00,,,-99.99,69.000000,,2013-07-11 11:53:00,
2013-07-11 08:01:00,53.0,51.0,-100.00,NW,324,4.0,6.0,94,0.00,,,-99.99,69.000000,,2013-07-11 12:01:00,
2013-07-11 08:12:00,53.0,51.0,-100.00,NW,324,4.0,6.0,94,0.00,,,-99.99,69.000000,,2013-07-11 12:12:00,
2013-07-11 08:43:00,59.0,54.0,-100.00,NW,316,5.0,9.0,85,0.00,,,-99.99,251.000000,,2013-07-11 12:43:00,
2013-07-11 08:57:00,59.0,54.0,-100.00,NW,316,5.0,9.0,85,0.00,,,-99.99,251.000000,,2013-07-11 12:57:00,
2013-07-11 09:02:00,59.0,54.0,-100.00,NW,316,5.0,9.0,85,0.00,,,-99.99,251.000000,,2013-07-11 13:02:00,
2013-07-11 09:13:00,59.0,54.0,-100.00,NW,316,5.0,9.0,85,0.00,,,-99.99,251.000000,,2013-07-11 13:13:00,
2013-07-11 09:14:00,63.0,55.0,-100.00,North,356,7.0,11.0,75,0.00,,,-99.99,441.000000,,2013-07-11 13:14:00,
2013-07-11 09:55:00,63.0,55.0,-100.00,North,356,7.0,11.0,75,0.00,,,-99.99,441.000000,,2013-07-11 13:55:00,
2013-07-11 10:05:00,63.0,55.0,-100.00,North,356,7.0,11.0,75,0.00,,,-99.99,441.000000,,2013-07-11 14:05:00,
2013-07-11 10:47:00,65.0,53.0,-100.00,North,358,7.0,15.0,66,0.00,,,0.00,682.000000,,2013-07-11 14:47:00,
2013-07-11 10:55:00,65.0,53.0,-100.00,North,358,7.0,15.0,66,0.00,,,0.00,682.000000,,2013-07-11 14:55:00,
2013-07-11 11:06:00,65.0,53.0,-100.00,North,358,7.0,15.0,66,0.00,,,0.00,682.000000,,2013-07-11 15:06:00,
2013-07-11 11:13:00,65.0,53.0,-100.00,North,358,7.0,15.0,66,0.00,,,0.00,682.000000,,2013-07-11 15:13:00,
2013-07-11 11:14:00,68.0,54.0,-100.00,NW,324,6.0,11.0,61,0.00,,,0.00,895.000000,,2013-07-11 15:14:00,
2013-07-11 11:48:00,68.0,54.0,-100.00,NW,324,6.0,11.0,61,0.00,,,0.00,895.000000,,2013-07-11 15:48:00,
2013-07-11 12:06:00,68.0,54.0,-100.00,NW,324,6.0,11.0,61,0.00,,,0.00,895.000000,,2013-07-11 16:06:00,
2013-07-11 12:49:00,69.0,54.0,-100.00,NW,314,8.0,17.0,59,0.00,,,0.00,993.000000,,2013-07-11 16:49:00,
2013-07-11 12:56:00,69.0,54.0,-100.00,NW,314,8.0,17.0,59,0.00,,,0.00,993.000000,,2013-07-11 16:56:00,
2013-07-11 13:03:00,69.0,54.0,-100.00,NW,314,8.0,17.0,59,0.00,,,0.00,993.000000,,2013-07-11 17:03:00,
2013-07-11 13:14:00,69.0,55.0,-100.00,NW,323,5.0,14.0,60,0.00,,,0.00,989.000000,,2013-07-11 17:14:00,
2013-07-11 13:49:00,69.0,55.0,-100.00,NW,323,5.0,14.0,60,0.00,,,0.00,989.000000,,2013-07-11 17:49:00,
2013-07-11 13:57:00,69.0,55.0,-100.00,NW,323,5.0,14.0,60,0.00,,,0.00,989.000000,,2013-07-11 17:57:00,
2013-07-11 14:05:00,69.0,55.0,-100.00,NW,323,5.0,14.0,60,0.00,,,0.00,989.000000,,2013-07-11 18:05:00,
2013-07-11 14:49:00,71.0,55.0,-100.00,NNW,344,7.0,13.0,57,0.00,,,0.00,1144.000000,,2013-07-11 18:49:00,
2013-07-11 14:56:00,71.0,55.0,-100.00,NNW,344,7.0,13.0,57,0.00,,,0.00,1144.000000,,2013-07-11 18:56:00,
2013-07-11 15:05:00,71.0,55.0,-100.00,NNW,344,7.0,13.0,57,0.00,,,0.00,1144.000000,,2013-07-11 19:05:00,
2013-07-11 15:13:00,71.0,55.0,-100.00,NNW,344,7.0,13.0,57,0.00,,,0.00,1144.000000,,2013-07-11 19:13:00,
2013-07-11 15:47:00,72.0,55.0,-100.00,WNW,301,6.0,12.0,55,0.00,,,0.00,1096.000000,,2013-07-11 19:47:00,
2013-07-11 15:58:00,72.0,55.0,-100.00,WNW,301,6.0,12.0,55,0.00,,,0.00,1096.000000,,2013-07-11 19:58:00,
2013-07-11 16:07:00,72.0,55.0,-100.00,WNW,301,6.0,12.0,55,0.00,,,0.00,1096.000000,,2013-07-11 20:07:00,
2013-07-11 16:13:00,72.0,55.0,-100.00,WNW,301,6.0,12.0,55,0.00,,,0.00,1096.000000,,2013-07-11 20:13:00,
2013-07-11 16:14:00,74.0,55.0,-100.00,NNW,342,3.0,17.0,51,0.00,,,0.00,1017.000000,,2013-07-11 20:14:00,
2013-07-11 16:50:00,74.0,55.0,-100.00,NNW,342,3.0,17.0,51,0.00,,,0.00,1017.000000,,2013-07-11 20:50:00,
2013-07-11 16:56:00,74.0,55.0,-100.00,NNW,342,3.0,17.0,51,0.00,,,0.00,1017.000000,,2013-07-11 20:56:00,
2013-07-11 17:05:00,74.0,55.0,-100.00,NNW,342,3.0,17.0,51,0.00,,,0.00,1017.000000,,2013-07-11 21:05:00,
2013-07-11 17:14:00,75.0,54.0,-100.00,NW,313,3.0,9.0,48,0.00,,,0.00,880.000000,,2013-07-11 21:14:00,
2013-07-11 17:46:00,75.0,54.0,-100.00,NW,313,3.0,9.0,48,0.00,,,0.00,880.000000,,2013-07-11 21:46:00,
2013-07-11 17:58:00,75.0,54.0,-100.00,NW,313,3.0,9.0,48,0.00,,,0.00,880.000000,,2013-07-11 21:58:00,
2013-07-11 18:05:00,75.0,54.0,-100.00,NW,313,3.0,9.0,48,0.00,,,0.00,880.000000,,2013-07-11 22:05:00,
2013-07-11 18:49:00,76.0,54.0,-100.00,WNW,303,2.0,6.0,47,0.00,,,0.00,693.000000,,2013-07-11 22:49:00,
2013-07-11 18:55:00,76.0,54.0,-100.00,WNW,303,2.0,6.0,47,0.00,,,0.00,693.000000,,2013-07-11 22:55:00,
2013-07-11 19:06:00,76.0,54.0,-100.00,WNW,303,2.0,6.0,47,0.00,,,0.00,693.000000,,2013-07-11 23:06:00,
2013-07-11 19:47:00,77.0,55.0,-100.00,WNW,296,2.0,7.0,46,0.00,,,0.00,495.000000,,2013-07-11 23:47:00,
2013-07-11 20:00:00,77.0,55.0,-100.00,WNW,296,2.0,7.0,46,0.00,,,0.00,495.000000,,2013-07-12 00:00:00,
2013-07-11 20:46:00,71.0,57.0,-100.00,NNE,32,5.0,8.0,61,0.00,,,-99.99,279.000000,,2013-07-12 00:46:00,
2013-07-11 20:58:00,71.0,57.0,-100.00,NNE,32,5.0,8.0,61,0.00,,,-99.99,279.000000,,2013-07-12 00:58:00,
2013-07-11 21:05:00,71.0,57.0,-100.00,NNE,32,5.0,8.0,61,0.00,,,-99.99,279.000000,,2013-07-12 01:05:00,
2013-07-11 21:13:00,71.0,57.0,-100.00,NNE,32,5.0,8.0,61,0.00,,,-99.99,279.000000,,2013-07-12 01:13:00,
2013-07-11 21:14:00,66.0,56.0,-100.00,NNE,13,2.0,6.0,69,0.00,,,0.00,96.000000,,2013-07-12 01:14:00,
2013-07-11 21:49:00,66.0,56.0,-100.00,NNE,13,2.0,6.0,69,0.00,,,0.00,96.000000,,2013-07-12 01:49:00,
2013-07-11 21:56:00,66.0,56.0,-100.00,NNE,13,2.0,6.0,69,0.00,,,0.00,96.000000,,2013-07-12 01:56:00,
2013-07-11 22:07:00,66.0,56.0,-100.00,NNE,13,2.0,6.0,69,0.00,,,0.00,96.000000,,2013-07-12 02:07:00,
2013-07-11 22:14:00,59.0,54.0,-100.00,NNE,30,4.0,7.0,84,0.00,,,0.00,4.000000,,2013-07-12 02:14:00,
2013-07-11 22:55:00,59.0,54.0,-100.00,NNE,30,4.0,7.0,84,0.00,,,0.00,4.000000,,2013-07-12 02:55:00,
2013-07-11 23:04:00,59.0,54.0,-100.00,NNE,30,4.0,7.0,84,0.00,,,0.00,4.000000,,2013-07-12 03:04:00,
2013-07-11 23:47:00,55.0,53.0,-100.00,NNW,345,3.0,4.0,92,0.00,,,0.00,0.000000,,2013-07-12 03:47:00,
2013-07-11 23:56:00,55.0,53.0,-100.00,NNW,345,3.0,4.0,92,0.00,,,0.00,0.000000,,2013-07-12 03:56:00,